Regional Weather Roundup
Issued by NWS

Home | Current Version | Previous Version | Text Only | Print | Product List | Glossary Off
Versions: 1 2 3 4 5 6 7 8 9 10 11 12 13 14 15 16 17 18 19 20 21 22 23 24 25 26 27 28 29 30 31 32 33 34 35 36 37 38 39 40 41 42 43 44 45 46 47 48 49 50

000
ASUS43 KMKX 300828
RWRWI

WISCONSIN REGIONAL WEATHER ROUNDUP
NATIONAL WEATHER SERVICE MILWAUKEE/SULLIVAN WI
300 AM CDT SAT MAY 30 2015

NOTE: "FAIR" INDICATES FEW OR NO CLOUDS BELOW 12,000 FEET WITH NO
SIGNIFICANT WEATHER AND/OR OBSTRUCTIONS TO VISIBILITY.

WIZ001-002-006>008-014>016-023>028-300900-
NORTHWEST WISCONSIN

CITY           SKY/WX    TMP DP  RH WIND       PRES   REMARKS
SUPERIOR ARPT  PTCLDY    46  39  78 N6        30.13S
ASHLAND        CLOUDY    50  43  77 N9        30.11R
HAYWARD        CLOUDY    49  43  80 N8        30.09S
SIREN          CLOUDY    47  42  81 N8        30.12R
CUMBERLAND     CLOUDY    46  43  87 N13       30.08S
RICE LAKE      MOCLDY    50  44  79 N13G21    30.08S
CHETEK         CLOUDY    50  48  90 NW3G16    30.07R
LADYSMITH      CLOUDY    51  48  89 N14G20    30.06S
EAU CLAIRE     CLOUDY    53  49  86 N12       30.02R
MENOMONIE      RAIN      52  49  92 N13G21    30.04S
NEW RICHMOND   MOCLDY    50  46  85 N15       30.09R
OSCEOLA        PTCLDY    48  46  93 N8G16     30.13R
$$

WIZ003>005-009-010-017-018-300900-
NORTH CENTRAL WISCONSIN

CITY           SKY/WX    TMP DP  RH WIND       PRES   REMARKS
MANITOWISH WTR CLOUDY    47  47 100 N8        30.04R
ARBOR VITAE    CLOUDY    52  50  94 N9        30.03R
WOODRUFF       CLOUDY    52  50  94 N9        30.03R
RHINELANDER    LGT RAIN  53  50  89 N6        30.01S
EAGLE RIVER    CLOUDY    51  51  99 CALM      30.01S
LAND O LAKES   CLOUDY    52  49  90 N6        30.03R
PHILLIPS       CLOUDY    48  46  93 N9        30.04R
TOMAHAWK       CLOUDY    51  50  95 N6        30.02R FOG
MEDFORD        CLOUDY    51  50  95 N12       30.00S
MERRILL        DRIZZLE   55  55  99 N9        29.99S
$$

WIZ029-030-035-036-043>047-300900-
CENTRAL WISCONSIN

CITY           SKY/WX    TMP DP  RH WIND       PRES   REMARKS
WAUSAU         LGT RAIN  57  55  93 VRB7      29.95S
MOSINEE        LGT RAIN  55  55 100 N9        29.98R
MARSHFIELD     LGT RAIN  58  54  86 NE13G22   29.96S
STEVENS POINT  RAIN      57  56  97 N14       29.95S
WAUPACA        RAIN      64  64  98 N6        29.93R
WAUTOMA        RAIN      63  63 100 NE6       29.91S FOG
WISC RAPIDS    HVY RAIN  60  58  92 N16G23    29.95R FOG
CAMP DOUGLAS   LGT RAIN  64  64 100 NW8       29.91R
$$

WIZ011>013-019>022-031-037>040-048>050-300900-
NORTHEAST WISCONSIN

CITY           SKY/WX    TMP DP  RH WIND       PRES   REMARKS
ANTIGO         LGT RAIN  55  54  97 N12       29.98R
SHAWANO        DRIZZLE   58  56  94 N17G24    29.95R
OCONTO         CLOUDY    56  56 100 NE7       29.94R
STURGEON BAY   CLOUDY    55  52  88 N20       29.96S
GREEN BAY      LGT RAIN  61  59  93 NE23G29   29.93R FOG
MANITOWOC      RAIN      63  63 100 CALM      29.92S FOG
APPLETON       DRIZZLE   63  63 100 NE9       29.92S
CLINTONVILLE   DRIZZLE   61  61 100 N7        29.93R
OSHKOSH        CLOUDY    65  63  93 CALM      29.90S
$$

WIZ032>034-041-042-053>061-300900-
SOUTHWEST WISCONSIN

CITY           SKY/WX    TMP DP  RH WIND       PRES   REMARKS
LA CROSSE      CLOUDY    62  58  86 N12       29.95R
SPARTA         RAIN      59  58  96 N9        29.95R
VIROQUA        CLOUDY    63  63 100 CALM      29.91F
BOSCOBEL       CLOUDY    67  65  93 CALM      29.90S
PRAIRIE DU CHI CLOUDY    66  64  90 SW3       29.89S
PLATTEVILLE    CLOUDY    65  64  96 SW9       29.92F
$$

WIZ056-057-062-063-064-067-068-300900-
SOUTH CENTRAL WISCONSIN

CITY           SKY/WX    TMP DP  RH WIND       PRES   REMARKS
REEDSBURG      CLOUDY    64  64 100 CALM      29.90S
BARABOO/DELLS  CLOUDY    64  62  94 CALM      29.90S
LONE ROCK      CLOUDY    67  64  90 CALM      29.90F
MINERAL POINT  LGT RAIN  68  64  88 SW9       29.92S
MADISON        CLOUDY    66  63  90 SE3       29.91S
MIDDLETON      CLOUDY    67  66  97 CALM      29.91F
WATERTOWN      CLOUDY   N/A N/A N/A S5        29.91S
MONROE         CLOUDY    66  63  88 SW9       29.93R
JANESVILLE     CLOUDY    70  64  83 W6        29.91S
$$

WIZ051-052-058>065-066-070>072-300900-
SOUTHEAST WISCONSIN

CITY           SKY/WX    TMP DP  RH WIND       PRES   REMARKS
MILWAUKEE      CLOUDY    67  63  87 CALM      29.91F
WAUKESHA       CLOUDY    63  61  94 CALM      29.93F
MILWAUKEE/TIMM CLOUDY    64  61  88 CALM      29.92F
RACINE         CLOUDY    67  64  90 W3        29.92F
BURLINGTON     CLOUDY    64  62  96 SW5       29.92S
KENOSHA        CLOUDY    66  63  90 SW6       29.92F
FOND DU LAC    LGT RAIN  64  63  96 S3        29.90F FOG
SHEBOYGAN      CLOUDY    64  62  93 NE3       29.90F
WEST BEND      LGT RAIN  63  61  94 CALM      29.91S
JUNEAU         DRIZZLE   63  63  99 CALM      29.92S
$$

LSZ147-162-300900-
LAKE SUPERIOR

STATION/POSITION TIME  TEMP    WIND        PRES    WAVE
                       AIR SEA DIR/SP/G            HT/PER
                 (UTC) (F)     (DEG/KT/KT) (MB)    (FT/S)
W MID LAKE BUOY  0750   45 37  350/ 12/ 12   N/A     1
DEVILS ISLAND    0800   45     310/  9/ 10   N/A
PORT WING        0700   46     280/  4/  5   N/A
SAXON HARBOR     0700   51     340/  5/  7   N/A
$$

LMZ867-665-643>646-300900-
LAKE MICHIGAN

STATION/POSITION TIME  TEMP    WIND        PRES    WAVE
                       AIR SEA DIR/SP/G            HT/PER
                 (UTC) (F)     (DEG/KT/KT) (MB)    (FT/S)
CHAMBERS ISLAND  0700   54     350/  9/ 11   N/A
N MID LAKE BUOY  0750   43 37  320/  8/ 10   N/A     1
NORTHPORT PIER   0700   54     340/ 18/ 20   N/A
SISTER BAY       0718   53      10/ 17/ 24   N/A
ALGOMA LAKESHORE 0738           60/  6/  7   N/A
KEWAUNEE LAKESHO 0800   50      30/  8/ 11   N/A
SHEBOYGAN LAKESH 0800   63     360/  6/  6   N/A
PORT WASHINGTON  0700   64     100/  1/  4   N/A
ATWATER BUOY     0800   55     110/  2/  4   N/A
MILWAUKEE LAKESH 0800   65      40/  3/  3   N/A
S MID LAKE BUOY  0750   45 38  210/  8/  8   N/A     0
KENOSHA   LAKESH 0800   69     250/  6/  9   N/A
$$

TC  - TEMPERATURE IN CELSIUS
VSB - VISIBILITY IN STATUTE MILES
WCI - WIND CHILL INDEX
HX  - HEAT INDEX




USA.gov is the U.S. government's official web portal to all federal, state and local government web resources and services.